Location: Unspecified
(48.5670°N, 0.0000°E)
Time: 02:12:34
(UTC+00:00)

Vanguard 2 Rocket - Visible Passes

Search period start: 19 August 2019 00:00
Search period end: 29 August 2019 00:00
Orbit: 553 x 3327 km, 32.9° (Epoch: 16 August)

Date Brightness Start Highest point End Pass type
(mag) Time Alt. Az. Time Alt. Az. Time Alt. Az.
19 Aug 9.9 02:36:41 15° S 02:45:40 27° SE 03:00:00 10° E visible
20 Aug 10.0 01:40:24 15° SSE 01:45:44 19° SE 01:56:20 10° E visible
20 Aug 9.9 03:46:12 11° SW 03:59:07 40° SSE 04:16:37 10° E visible
21 Aug 10.2 00:44:07 11° SE 00:46:14 11° SE 00:50:05 10° ESE visible
21 Aug 9.7 02:49:54 18° SSW 02:58:31 33° SSE 03:14:11 10° E visible
22 Aug 9.7 01:53:36 21° SSE 01:58:26 25° SE 02:11:10 10° E visible
22 Aug 9.8 03:59:23 11° SW 04:12:19 44° SSE 04:30:17 10° ESE visible
23 Aug 9.9 00:57:17 16° SE 00:58:50 17° SE 01:07:15 10° E visible
23 Aug 9.5 03:03:05 20° SSW 03:11:35 38° SSE 03:28:01 10° E visible
24 Aug 9.4 02:06:46 25° S 02:11:20 31° SSE 02:25:21 10° E visible
24 Aug 9.8 04:12:36 10° WSW 04:25:39 45° S 04:43:45 10° ESE visible
25 Aug 9.6 01:10:28 22° SSE 01:11:36 22° SE 01:22:13 10° E visible
25 Aug 9.4 03:16:16 20° SW 03:24:50 41° SSE 03:41:38 10° ESE visible
26 Aug 10.0 00:14:11 13° ESE 00:14:11 13° ESE 00:18:04 10° ESE visible
26 Aug 9.2 02:19:58 28° S 02:24:29 35° SSE 02:39:11 10° E visible
26 Aug 9.7 04:26:19 10° WSW 04:39:04 45° S 04:57:02 10° ESE visible
27 Aug 9.3 01:23:42 27° SSE 01:24:35 27° SSE 01:36:28 10° E visible
27 Aug 9.3 03:29:29 19° SW 03:38:14 43° S 03:55:03 10° ESE visible
28 Aug 9.7 00:27:27 18° SE 00:27:27 18° SE 00:33:21 10° ESE visible
28 Aug 9.0 02:33:14 30° SSW 02:37:48 38° SSE 02:52:47 10° ESE visible
